Showing default

WNISAT 1R, 42835

Orbit data source: Space-Track

WNISAT 1R, 42835 is a payload satellite owned by WNI (JP) in SSO that was launched on Fri, 14 Jul 2017 UTC via a SOYUZ-2-1A launch vehicle from the Tyuratam Missile And Space Complex (TTMTR). Payload-class satellites include a variety of spacecraft equipped with specific instruments for various scientific and technological missions. These include communications satellites like Starlink; space stations such as the ISS; scientific satellites like the Hubble; Earth observation satellites from companies like Planet Labs, Umbra, and HawkEye 360; GPS; miniature CubeSats for education and research; and military/defense satellites.

Loading next visibility...
Identifier
42835, 2017-042L
Orbit
SSO
Country
Flag of JPJP / JPN
Related business
Manufacturer
AXELSPACE
Mission
Operational Commercial Weather
Bus & Motor
HODOYOSHI, Unknown motor
Mass
40 kg wet, 40 kg dry
Launch date (UTC)
2017-07-14 (9 years ago)
Launch vehicle
SOYUZ-2-1A
Launch site
Tyuratam Missile And Space Complex (TTMTR)
Object type
Payload
Rocket body
Debris
Shape & HBR
Box + 2 Pan, 0.8 m
Radar Cross Section
0.514 m², Medium (>0.1 m² and < 1m²)

Expand to show TLE details & history
Last TLE update: 10 hours ago

TLE from 10 hours ago
0 WNISAT 1R
1 42835U 17042L   26034.39636852  .00004497  00000-0  35777-3 0  9999
2 42835  97.4344 195.6824 0011660 248.9826 111.0152 15.00835211466433
Epoch: 2026-02-03T09:30Z
TLE epoch observation values (Epoch: 2026-02-03T09:30:46.240Z)
Latitude
0.00003°
Longitude
-80.58817°
Altitude
570.295 km
Speed
7.574 km/s
True Right ascension
13h 02m 43s
True Declination
0° 00' 00"
Sunlit
Object was in full shadow at epoch
Visualization orbit readout
Latitude
Unknown
Longitude
Unknown
Altitude
Unknown
Speed
Unknown
Apparent Right ascension
Unknown
Apparent Declination
Unknown
Sunlit
N/A
Visualization observer readout
Local Sidereal Time
21:09:11
Azimuth
Unknown
Elevation
Unknown
Doppler factor
Unknown
Orbital elements
Apogee altitude
569.404 km
Perigee altitude
553.221 km
Semi-major axis
6,939.449 km
Eccentricity
0.00117
Inclination
97.4344°
RAAN
195.6824°
Arg. of periapsis
248.9826°
True anomaly
111.13986°
Mean anomaly
111.0152°
Eccentric anomaly
111.07754°
Mean motion
3.75453 °/min
Orbital period
95.88 mins
BSTAR
0.00035777
Loading maneuver chart data...
Computing Atmospheric mass density...
Loading historical data...
Loading historical data...
Loading historical data...
Loading historical data...
Loading historical data...
Loading historical data...
Loading historical data...

Documentation

Showing up to 5 results
|